Change the Weather History Date:

Saturday, December 15, 2012

  Actual Average Record
Temperature  
Mean Temperature 64 °F -  
Max Temperature 73 °F 55 °F 77 °F (2010)
Min Temperature 54 °F 36 °F 24 °F (2004)
Degree Days  
Heating Degree Days 2    
Growing Degree Days 14 (Base 50)    
Moisture  
Dew Point 46 °F    
Average Humidity 62    
Maximum Humidity 94    
Minimum Humidity 20    
Precipitation  
Precipitation 0.02 in - - ()
Sea Level Pressure  
Sea Level Pressure 29.86 in    
Wind  
Wind Speed 5 mph (SSW)    
Max Wind Speed 14 mph    
Max Gust Speed 20 mph    
Visibility 8 miles    
Events Rain    
Averages and records for this station are not official NWS values.
T = Trace of Precipitation, MM = Missing Value Source: NWS Daily Summary

Daily Weather History Graph

Daily Weather History Graph

Search for Another Location

Airport or City:

Trip Planner

Search our weather history database for the weather conditions in past years. The results will help you decide how hot, cold, wet, or windy it might be!

Date:

Astronomy

Dec. 15, 2012 Rise Set
Actual Time 7:22 AM CST 5:23 PM CST
Civil Twilight 6:55 AM CST 5:50 PM CST
Nautical Twilight 6:24 AM CST 6:21 PM CST
Astronomical Twilight 5:54 AM CST 6:51 PM CST
Moon 9:21 AM CST (12/15) 8:21 PM CST (12/15)
Length of Visible Light 10h 55m
Length of Day
10h 00m
Waxing Crescent, 8% of the Moon is Illuminated
Dec 15
Waxing Crescent
Dec 19
First Quarter
Dec 28
Full
Jan 4
Last Quarter
Jan 11
New

Hourly Weather History & Observations

Time (CST) Temp. Dew Point Humidity Pressure Visibility Wind Dir Wind Speed Gust Speed Precip Events Conditions
12:01 AM 60.8 °F 57.2 °F 88% 29.91 in 4.0 mi WNW 8.1 mph - 0.00 in Rain Light Rain
12:48 AM 60.8 °F 57.2 °F 88% 29.88 in 2.5 mi Calm Calm - 0.01 in   Overcast
12:53 AM 60.1 °F 57.9 °F 93% 29.86 in 2.5 mi SSE 5.8 mph - 0.01 in   Overcast
1:08 AM 60.8 °F 59.0 °F 94% 29.87 in 4.0 mi South 3.5 mph - 0.01 in   Overcast
1:15 AM 60.8 °F 59.0 °F 94% 29.87 in 3.0 mi South 3.5 mph - 0.01 in   Overcast
1:53 AM 60.1 °F 57.9 °F 93% 29.86 in 3.0 mi South 3.5 mph - 0.01 in   Mostly Cloudy
2:22 AM 60.8 °F 57.2 °F 88% 29.87 in 2.0 mi SSW 3.5 mph - N/A   Mostly Cloudy
2:34 AM 60.8 °F 57.2 °F 88% 29.86 in 3.0 mi SSW 3.5 mph - N/A   Mostly Cloudy
2:40 AM 59.0 °F 57.2 °F 94% 29.87 in 1.8 mi SSW 3.5 mph - N/A   Scattered Clouds
2:51 AM 59.0 °F 57.2 °F 94% 29.86 in 3.0 mi South 3.5 mph - N/A   Scattered Clouds
2:53 AM 59.0 °F 57.0 °F 93% 29.86 in 3.0 mi South 3.5 mph - N/A   Partly Cloudy
3:53 AM 59.0 °F 52.0 °F 78% 29.86 in 10.0 mi WSW 5.8 mph - N/A   Mostly Cloudy
4:53 AM 55.9 °F 48.9 °F 77% 29.86 in 10.0 mi WSW 4.6 mph - N/A   Partly Cloudy
5:53 AM 55.0 °F 46.9 °F 74% 29.87 in 10.0 mi SSW 3.5 mph - N/A   Scattered Clouds
6:53 AM 54.0 °F 46.0 °F 75% 29.88 in 10.0 mi SSW 4.6 mph - N/A   Clear
7:53 AM 54.0 °F 44.1 °F 69% 29.90 in 10.0 mi SSW 4.6 mph - N/A   Clear
8:53 AM 57.0 °F 43.0 °F 59% 29.90 in 10.0 mi SW 5.8 mph - N/A   Partly Cloudy
9:53 AM 61.0 °F 37.9 °F 42% 29.92 in 10.0 mi West 10.4 mph - N/A   Clear
10:53 AM 64.0 °F 35.1 °F 34% 29.91 in 10.0 mi West 13.8 mph 18.4 mph N/A   Clear
11:53 AM 68.0 °F 32.0 °F 26% 29.89 in 10.0 mi West 11.5 mph - N/A   Clear
12:53 PM 71.1 °F 30.0 °F 22% 29.85 in 10.0 mi WSW 12.7 mph 19.6 mph N/A   Clear
1:53 PM 72.0 °F 30.0 °F 21% 29.83 in 10.0 mi WSW 8.1 mph - N/A   Clear
2:53 PM 73.0 °F 28.9 °F 20% 29.82 in 10.0 mi SW 5.8 mph - N/A   Clear
3:53 PM 72.0 °F 33.1 °F 24% 29.81 in 10.0 mi South 5.8 mph - N/A   Clear
4:53 PM 69.1 °F 33.1 °F 26% 29.81 in 10.0 mi Calm Calm - N/A   Clear
5:53 PM 64.9 °F 37.0 °F 36% 29.83 in 10.0 mi South 5.8 mph - N/A   Clear
6:53 PM 64.0 °F 41.0 °F 43% 29.83 in 10.0 mi South 4.6 mph - N/A   Clear
7:53 PM 62.1 °F 41.0 °F 46% 29.83 in 10.0 mi South 5.8 mph - N/A   Clear
8:53 PM 62.1 °F 42.1 °F 48% 29.84 in 10.0 mi SSW 6.9 mph - N/A   Clear
9:53 PM 61.0 °F 42.1 °F 50% 29.83 in 10.0 mi SSW 5.8 mph - N/A   Clear
10:53 PM 62.1 °F 43.0 °F 50% 29.83 in 10.0 mi SW 4.6 mph - N/A   Clear
11:53 PM 60.1 °F 43.0 °F 53% 29.83 in 10.0 mi SW 3.5 mph - N/A   Clear